カタログに戻る

YAOGAN-30 V

運用中軍事VLEO
NORAD 46808·PAYLOAD·🇨🇳 China

打ち上げ Oct 26, 2020 から Xichang Satellite Launch Center

Loading…

次のパス (今後24時間)

TLE

最新Source: Space-Track

元期: Sep 14, 2026, 23:23 UTC

1 46808U 20076B   26257.97449574  .00002104  00000-0  15532-3 0  9998
2 46808  34.9940 263.5879 0000415  21.9369 338.1358 15.03014759321740

AllMySatでYAOGAN-30 Vをリアルタイム追跡

Download on the App Store